| |
Missouri Department of Transportation

Social Media Facebook Twitter Flickr Instagram YouTube RSS

Current METAR Information for All MoDOT Locations 
AWOS Home - General Info for all Airports
Current AWOS for all Airports - Current METAR for all Airports
Glossary - Disclaimer - Other Links


Automated Weather Observation System
Date: 09-29-2016
 
Location Current METAR Record
HANNIBAL METAR KHAE 290813Z AUTO 32006KT 10SM CLR 11/09 A3020 RMK AO2
HARRISONVILLE  No current data available
LEBANON  No current data available
MALDEN  No current data available
MARSHALL METAR KMHL 290828Z AUTO 33004KT 10SM CLR 11/10 A3026 RMK AO2
MARYVILLE  No current data available
MEXICO  No current data available
MOBERLY  No current data available
NEVADA  No current data available
PIEDMONT  No current data available
SIKESTON  No current data available
SULLIVAN  No current data available
WARSAW  No current data available
About Us
How Do I...
Contact Us
Missouri Department of Transportation
Central Office
105 W. Capitol Avenue
Jefferson City, MO 65102
1-888-ASK-MODOT (275-6636)
1-866-831-6277 (Motor Carrier Services)
Driver's License Offices
horz_bar
| | |
Missouri State Government
© 2013 Missouri Department of Transportation. All Rights Reserved.   Privacy Policy.
 
 
 
 
RSS FeedYoutubeBlogFlickrTwitter Facebook